Location: Deuil
(48.9767°N, 2.3272°E)
Time: 15:48:23
(UTC+00:00)

USA 215 - Pass Details

Date: 24 October 2021
Orbit: 1099 x 1109 km, 123.0° (Epoch: 20 November)

Event Time Altitude Azimuth Distance (km) Brightness Sun altitude
Exits shadow 19:08:35 28° 45° (NE) 1,923 4.2 -24.4°
Maximum altitude 19:11:47 51° 346° (NNW) 1,366 3.8 -24.9°
Drops below altitude 10° 19:18:04 10° 273° (W) 2,964 6.5 -25.9°
Sets 19:20:36 0° 268° (W) 3,923 7.4 -26.3°
